Tillbaka till svenska Fidonet
English   Information   Debug  
FILM   0/18
FNEWS_PUBLISH   4983
FN_SYSOP   42232
FN_SYSOP_OLD1   71952
FTP_FIDO   0/2
FTSC_PUBLIC   0/13976
FUNNY   0/4886
GENEALOGY.EUR   0/71
GET_INFO   105
GOLDED   216/408
HAM   4294/16715
HOLYSMOKE   0/6791
HOT_SITES   0/1
HTMLEDIT   0/71
HUB203   466
HUB_100   264
HUB_400   39
HUMOR   0/29
IC   0/2851
INTERNET   0/424
INTERUSER   0/3
IP_CONNECT   719
JAMNNTPD   0/233
JAMTLAND   0/47
KATTY_KORNER   0/41
LAN   0/16
LINUX-USER   0/19
LINUXHELP   0/1155
LINUX   0/22386
LINUX_BBS   0/957
mail   18.68
mail_fore_ok   249
MENSA   0/341
MODERATOR   0/102
MONTE   0/992
MOSCOW_OKLAHOMA   0/1245
MUFFIN   0/783
MUSIC   0/321
N203_STAT   938
N203_SYSCHAT   313
NET203   321
NET204   69
NET_DEV   0/10
NORD.ADMIN   0/101
NORD.CHAT   0/2572
NORD.FIDONET   189
NORD.HARDWARE   0/28
NORD.KULTUR   0/114
NORD.PROG   0/32
NORD.SOFTWARE   0/88
NORD.TEKNIK   0/58
NORD   0/453
OCCULT_CHAT   0/93
OS2BBS   0/787
OS2DOSBBS   0/580
OS2HW   0/42
OS2INET   0/37
OS2LAN   0/134
OS2PROG   0/36
OS2REXX   0/113
OS2USER-L   207
OS2   0/4831
OSDEBATE   0/18996
PASCAL   0/490
PERL   0/457
PHP   0/45
POINTS   0/405
POLITICS   0/29554
POL_INC   0/14731
PSION   103
R20_ADMIN   1133
R20_AMATORRADIO   0/2
R20_BEST_OF_FIDONET   16
R20_CHAT   0/897
R20_DEPP   0/3
R20_DEV   400
R20_ECHO2   1889
R20_ECHOPRES   0/35
R20_ESTAT   0/719
R20_FIDONETPROG...
...RAM.MYPOINT
  0/2
R20_FIDONETPROGRAM   0/22
R20_FIDONET   0/248
R20_FILEFIND   0/24
R20_FILEFOUND   0/22
R20_HIFI   0/3
R20_INFO2   3782
R20_INTERNET   0/12940
R20_INTRESSE   0/60
R20_INTR_KOM   0/99
R20_KANDIDAT.CHAT   42
R20_KANDIDAT   28
R20_KOM_DEV   112
R20_KONTROLL   0/13360
R20_KORSET   0/18
R20_LOKALTRAFIK   0/24
R20_MODERATOR   0/1852
R20_NC   76
R20_NET200   245
R20_NETWORK.OTH...
...ERNETS
  0/13
R20_OPERATIVSYS...
...TEM.LINUX
  0/44
R20_PROGRAMVAROR   0/1
R20_REC2NEC   534
R20_SFOSM   0/341
R20_SF   0/108
R20_SPRAK.ENGLISH   0/1
R20_SQUISH   107
R20_TEST   2
R20_WORST_OF_FIDONET   20
RAR   0/9
RA_MULTI   106
RA_UTIL   0/162
REGCON.EUR   0/2069
REGCON   0/13
SCIENCE   0/1206
SF   0/239
SHAREWARE_SUPPORT   0/5146
SHAREWRE   0/14
SIMPSONS   0/169
STATS_OLD1   0/2539.065
STATS_OLD2   0/2530
STATS_OLD3   0/2395.095
STATS_OLD4   0/1692.25
SURVIVOR   0/495
SYSOPS_CORNER   0/3
SYSOP   0/84
TAGLINES   0/112
TEAMOS2   0/4530
TECH   0/2617
TEST.444   0/105
TRAPDOOR   0/19
TREK   0/755
TUB   0/290
UFO   0/40
UNIX   0/1316
USA_EURLINK   0/102
USR_MODEMS   0/1
VATICAN   0/2740
VIETNAM_VETS   0/14
VIRUS   0/378
VIRUS_INFO   0/201
VISUAL_BASIC   0/473
WHITEHOUSE   2467/5187
WIN2000   0/101
WIN32   0/30
WIN95   0/4291
WIN95_OLD1   0/70272
WINDOWS   0/1517
WWB_SYSOP   0/419
WWB_TECH   0/810
ZCC-PUBLIC   0/1
ZEC   4

 
4DOS   0/134
ABORTION   0/7
ALASKA_CHAT   0/506
ALLFIX_FILE   0/1313
ALLFIX_FILE_OLD1   0/7997
ALT_DOS   0/152
AMATEUR_RADIO   0/1039
AMIGASALE   0/14
AMIGA   0/331
AMIGA_INT   0/1
AMIGA_PROG   0/20
AMIGA_SYSOP   0/26
ANIME   0/15
ARGUS   0/924
ASCII_ART   0/340
ASIAN_LINK   0/651
ASTRONOMY   0/417
AUDIO   0/92
AUTOMOBILE_RACING   0/105
BABYLON5   0/17862
BAG   135
BATPOWER   0/361
BBBS.ENGLISH   0/382
BBSLAW   0/109
BBS_ADS   0/5290
BBS_INTERNET   0/507
BIBLE   0/3563
BINKD   0/1119
BINKLEY   0/215
BLUEWAVE   0/2173
CABLE_MODEMS   0/25
CBM   0/46
CDRECORD   0/66
CDROM   0/20
CLASSIC_COMPUTER   0/378
COMICS   0/15
CONSPRCY   0/899
COOKING   42009
COOKING_OLD1   0/24719
COOKING_OLD2   0/40862
COOKING_OLD3   0/37489
COOKING_OLD4   19888/35496
COOKING_OLD5   9370
C_ECHO   0/189
C_PLUSPLUS   0/31
DIRTY_DOZEN   0/201
DOORGAMES   0/2333
DOS_INTERNET   0/196
duplikat   6102
ECHOLIST   0/18295
EC_SUPPORT   0/318
ELECTRONICS   0/359
ELEKTRONIK.GER   1534
ENET.LINGUISTIC   0/13
ENET.POLITICS   0/4
ENET.SOFT   0/11701
ENET.SYSOP   34335
ENET.TALKS   0/32
ENGLISH_TUTOR   0/2000
EVOLUTION   0/1335
FDECHO   0/217
FDN_ANNOUNCE   0/7068
FIDONEWS   25122
FIDONEWS_OLD1   0/49742
FIDONEWS_OLD2   0/35949
FIDONEWS_OLD3   0/30874
FIDONEWS_OLD4   0/37224
FIDO_SYSOP   12973
FIDO_UTIL   0/180
FILEFIND   0/209
FILEGATE   0/212
Möte HAM, 16715 texter
 lista första sista föregående nästa
Text 4124, 876 rader
Skriven 2010-11-04 22:30:27 av Amsat List (1:323/120.0)
Ärende: [keps]  orb10308.amsa
=============================
[keps]  orb10308.amsa

Return-Path: <keps-bounces@amsat.org>
X-Rcpt: craig.healy@chowda.com
X-UIDL: 1288927034.34388

SB KEPS @ AMSAT  $ORB10308.O
Orbital Elements  10308.OSCAR

HR AMSAT ORBITAL ELEMENTS FOR OSCAR SATELLITES
FROM WA5QGD FORT WORTH,TX November 4, 2010
BID: ORB10308.O
TO ALL RADIO AMATEURS BT

Satellite: AO-07
Catalog number: 07530
Epoch time:      10307.94333968
Element set:    0921
Inclination:      101.3988 deg
RA of node:       318.3720 deg
Eccentricity:    0.0012117
Arg of perigee:   001.3722 deg
Mean anomaly:     358.7376 deg
Mean motion:   12.53580035 rev/day
Decay rate:       -2.7e-07 rev/day^2
Epoch rev:           64596
Checksum:              293

Satellite: FO-29
Catalog number: 24278
Epoch time:      10307.94799780
Element set:    0432
Inclination:      098.5192 deg
RA of node:       117.8001 deg
Eccentricity:    0.0351358
Arg of perigee:   121.2420 deg
Mean anomaly:     242.3644 deg
Mean motion:   13.52954432 rev/day
Decay rate:        5.4e-07 rev/day^2
Epoch rev:           70200
Checksum:              288

Satellite: SO-33
Catalog number: 25509
Epoch time:      10307.48736396
Element set:     828
Inclination:      031.4300 deg
RA of node:       080.7548 deg
Eccentricity:    0.0353443
Arg of perigee:   067.9334 deg
Mean anomaly:     295.8409 deg
Mean motion:   14.28335721 rev/day
Decay rate:        5.0e-07 rev/day^2
Epoch rev:           62798
Checksum:              320

Satellite: RS-22
Catalog number: 27939
Epoch time:      10308.63011096
Element set:     692
Inclination:      097.8702 deg
RA of node:       167.9987 deg
Eccentricity:    0.0013357
Arg of perigee:   340.5498 deg
Mean anomaly:     019.5204 deg
Mean motion:   14.63470938 rev/day
Decay rate:        9.0e-07 rev/day^2
Epoch rev:           37949
Checksum:              339

Satellite: VO-52
Catalog number: 28650
Epoch time:      10308.58962580
Element set:     638
Inclination:      097.6746 deg
RA of node:       356.4149 deg
Eccentricity:    0.0026833
Arg of perigee:   174.7435 deg
Mean anomaly:     185.4068 deg
Mean motion:   14.81842959 rev/day
Decay rate:       5.46e-06 rev/day^2
Epoch rev:           29748
Checksum:              362

Satellite: SO-67
Catalog number: 35870
Epoch time:      10308.64760125
Element set:     257
Inclination:      097.3151 deg
RA of node:       353.9407 deg
Eccentricity:    0.0002797
Arg of perigee:   358.1598 deg
Mean anomaly:     148.0533 deg
Mean motion:   15.21153176 rev/day
Decay rate:       8.16e-06 rev/day^2
Epoch rev:            6280
Checksum:              311

Satellite: HO-68
Catalog number: 36122
Epoch time:      10308.63512288
Element set:     817
Inclination:      100.4520 deg
RA of node:       007.5302 deg
Eccentricity:    0.0007691
Arg of perigee:   019.4330 deg
Mean anomaly:     340.7071 deg
Mean motion:   13.16282532 rev/day
Decay rate:       -4.5e-07 rev/day^2
Epoch rev:            4269
Checksum:              260

/EX
SB KEPS @ AMSAT  $ORB10308.D
Orbital Elements  10308.MICROS

HR AMSAT ORBITAL ELEMENTS FOR THE MICROSATS
FROM WA5QGD FORT WORTH,TX November 4, 2010
BID: ORB10308.D
TO ALL RADIO AMATEURS BT

Satellite: UO-11
Catalog number: 14781
Epoch time:      10307.65019712
Element set:    0383
Inclination:      098.0395 deg
RA of node:       359.6784 deg
Eccentricity:    0.0009583
Arg of perigee:   142.4891 deg
Mean anomaly:     217.7011 deg
Mean motion:   14.79852594 rev/day
Decay rate:       1.89e-06 rev/day^2
Epoch rev:           43243
Checksum:              326

Satellite: AO-16
Catalog number: 20439
Epoch time:      10307.80697865
Element set:    0036
Inclination:      098.3519 deg
RA of node:       260.3476 deg
Eccentricity:    0.0011828
Arg of perigee:   110.2715 deg
Mean anomaly:     249.9747 deg
Mean motion:   14.31881338 rev/day
Decay rate:        4.9e-07 rev/day^2
Epoch rev:           08536
Checksum:              322

Satellite: LO-19
Catalog number: 20442
Epoch time:      10307.64263469
Element set:    0946
Inclination:      098.3149 deg
RA of node:       265.4324 deg
Eccentricity:    0.0012956
Arg of perigee:   106.3814 deg
Mean anomaly:     253.8797 deg
Mean motion:   14.32109960 rev/day
Decay rate:       -2.2e-07 rev/day^2
Epoch rev:           08551
Checksum:              309

Satellite: AO-27
Catalog number: 22825
Epoch time:      10307.81122630
Element set:    0668
Inclination:      098.5012 deg
RA of node:       252.2530 deg
Eccentricity:    0.0007752
Arg of perigee:   214.6314 deg
Mean anomaly:     145.4381 deg
Mean motion:   14.29314220 rev/day
Decay rate:        2.0e-07 rev/day^2
Epoch rev:           89199
Checksum:              271

Satellite: IO-26
Catalog number: 22826
Epoch time:      10307.78162046
Element set:    0406
Inclination:      098.4969 deg
RA of node:       252.7760 deg
Eccentricity:    0.0008442
Arg of perigee:   208.6328 deg
Mean anomaly:     151.4396 deg
Mean motion:   14.29572362 rev/day
Decay rate:        4.4e-07 rev/day^2
Epoch rev:           89210
Checksum:              313

Satellite: GO-32
Catalog number: 25397
Epoch time:      10307.79731601
Element set:    0325
Inclination:      098.3175 deg
RA of node:       307.5864 deg
Eccentricity:    0.0001001
Arg of perigee:   164.1068 deg
Mean anomaly:     196.0145 deg
Mean motion:   14.23188000 rev/day
Decay rate:       -9.8e-07 rev/day^2
Epoch rev:           63990
Checksum:              289

Satellite: NO-44
Catalog number: 26931
Epoch time:      10307.70447013
Element set:    0599
Inclination:      067.0520 deg
RA of node:       204.5099 deg
Eccentricity:    0.0005719
Arg of perigee:   271.8748 deg
Mean anomaly:     088.1696 deg
Mean motion:   14.29619086 rev/day
Decay rate:        4.2e-07 rev/day^2
Epoch rev:           47469
Checksum:              328

